TimeCST,TemperatureF,Dew PointF,Humidity,Sea Level PressureIn,VisibilityMPH,Wind Direction,Wind SpeedMPH,Gust SpeedMPH,PrecipitationIn,Events,Conditions,WindDirDegrees,DateUTC
12:54 AM,41.0,30.0,65,29.89,10.0,North,10.4,-,N/A,,Overcast,10,2013-02-13 06:54:00
1:54 AM,39.9,30.0,68,29.88,10.0,North,5.8,-,N/A,,Overcast,10,2013-02-13 07:54:00
2:54 AM,39.0,30.0,70,29.86,10.0,North,8.1,-,N/A,,Overcast,10,2013-02-13 08:54:00
3:54 AM,37.9,30.0,73,29.84,10.0,North,12.7,-,N/A,,Overcast,360,2013-02-13 09:54:00
4:54 AM,37.9,28.9,70,29.85,9.0,North,11.5,-,N/A,,Overcast,350,2013-02-13 10:54:00
5:54 AM,36.0,30.0,79,29.87,7.0,North,8.1,-,0.00,,Overcast,360,2013-02-13 11:54:00
6:10 AM,33.8,30.2,87,29.86,2.5,North,8.1,-,0.00,Snow,Light Snow,360,2013-02-13 12:10:00
6:15 AM,33.8,30.2,87,29.87,1.8,NNE,9.2,-,0.01,Snow,Light Snow,20,2013-02-13 12:15:00
6:39 AM,33.8,30.2,87,29.87,1.2,North,3.5,-,0.02,Snow,Light Snow,10,2013-02-13 12:39:00
6:54 AM,33.1,30.9,92,29.88,1.0,North,6.9,-,0.03,Snow,Light Snow,10,2013-02-13 12:54:00
7:25 AM,33.8,30.2,87,29.88,1.0,North,5.8,-,0.02,Snow,Light Snow,10,2013-02-13 13:25:00
7:34 AM,33.8,30.2,87,29.89,1.0,North,8.1,-,0.03,Snow,Light Snow,10,2013-02-13 13:34:00
7:54 AM,33.1,30.0,89,29.90,0.8,North,5.8,-,0.04,Snow,Light Snow,360,2013-02-13 13:54:00
8:47 AM,33.8,30.2,87,29.90,1.0,North,4.6,-,0.04,Snow,Light Snow,360,2013-02-13 14:47:00
8:54 AM,33.1,30.0,89,29.91,1.0,North,6.9,-,0.04,Snow,Light Snow,350,2013-02-13 14:54:00
9:10 AM,33.8,30.2,87,29.90,1.5,North,4.6,-,0.01,Snow,Light Snow,350,2013-02-13 15:10:00
9:39 AM,33.8,30.2,87,29.91,1.8,NW,5.8,-,0.01,Snow,Light Snow,320,2013-02-13 15:39:00
9:47 AM,33.8,30.2,87,29.91,1.5,NW,4.6,-,0.01,Snow,Light Snow,320,2013-02-13 15:47:00
9:54 AM,34.0,30.0,85,29.92,1.5,NW,4.6,-,0.01,Snow,Light Snow,310,2013-02-13 15:54:00
9:58 AM,33.8,30.2,87,29.91,3.0,NW,3.5,-,0.00,Snow,Light Snow,310,2013-02-13 15:58:00
10:04 AM,33.8,30.2,87,29.91,2.5,NW,4.6,-,0.00,Snow,Light Snow,310,2013-02-13 16:04:00
10:27 AM,33.8,30.2,87,29.91,2.0,Calm,Calm,-,0.01,Snow,Light Snow,0,2013-02-13 16:27:00
10:34 AM,35.6,30.2,81,29.91,5.0,Calm,Calm,-,0.01,Snow,Light Snow,0,2013-02-13 16:34:00
10:54 AM,35.1,32.0,89,29.93,6.0,Calm,Calm,-,0.01,,Overcast,0,2013-02-13 16:54:00
11:03 AM,35.6,32.0,87,29.92,10.0,WNW,3.5,-,N/A,,Overcast,300,2013-02-13 17:03:00
11:54 AM,37.9,30.9,76,29.91,10.0,SSW,4.6,-,N/A,,Overcast,210,2013-02-13 17:54:00
12:54 PM,41.0,32.0,70,29.88,10.0,WSW,6.9,-,N/A,,Overcast,250,2013-02-13 18:54:00
1:54 PM,44.1,33.1,65,29.88,10.0,SW,8.1,-,N/A,,Partly Cloudy,230,2013-02-13 19:54:00
2:54 PM,45.0,30.9,58,29.88,10.0,SW,9.2,-,N/A,,Partly Cloudy,230,2013-02-13 20:54:00
3:54 PM,44.1,32.0,63,29.88,10.0,WSW,6.9,-,N/A,,Scattered Clouds,240,2013-02-13 21:54:00
4:54 PM,43.0,33.1,68,29.88,10.0,SSW,6.9,-,N/A,,Partly Cloudy,200,2013-02-13 22:54:00
5:54 PM,41.0,32.0,70,29.90,10.0,South,6.9,-,N/A,,Clear,190,2013-02-13 23:54:00
6:54 PM,41.0,33.1,73,29.91,10.0,South,8.1,-,N/A,,Clear,170,2013-02-14 00:54:00
7:54 PM,39.0,32.0,76,29.92,10.0,South,6.9,-,N/A,,Clear,190,2013-02-14 01:54:00
8:54 PM,37.9,32.0,79,29.93,10.0,South,6.9,-,N/A,,Clear,190,2013-02-14 02:54:00
9:54 PM,37.9,32.0,79,29.94,10.0,SSW,8.1,-,N/A,,Clear,200,2013-02-14 03:54:00
10:54 PM,37.9,32.0,79,29.94,10.0,SSW,9.2,-,N/A,,Clear,200,2013-02-14 04:54:00
11:54 PM,36.0,32.0,86,29.94,9.0,SSW,10.4,-,N/A,,Clear,210,2013-02-14 05:54:00